| time (UTC) | temp F | wind direction | speed knots | gust knots | rain 1hr in | rain 24hr in | rain mn in | humidity % | barometer mb |
| 20260503231525 | 60 | 194 | 5.2 | 12.2 | 0.00 | 0.00 | 0.00 | 86 | 1012.9 |
| 20260503230020 | 60 | 255 | 4.3 | 13.0 | 0.00 | 0.00 | 0.00 | 87 | 1012.6 |
| 20260503224518 | 59 | 237 | 6.1 | 12.2 | 0.00 | 0.00 | 0.00 | 90 | 1012.4 |
| 20260503223018 | 58 | 269 | 4.3 | 10.4 | 0.00 | 0.00 | 0.00 | 90 | 1012.3 |
| 20260503221513 | 58 | 302 | 5.2 | 11.3 | 0.00 | 0.00 | 0.00 | 91 | 1011.9 |
| 20260503220011 | 58 | 270 | 6.1 | 12.2 | 0.00 | 0.00 | 0.00 | 91 | 1011.7 |
| 20260503214511 | 58 | 284 | 4.3 | 12.2 | 0.00 | 0.00 | 0.00 | 89 | 1011.4 |
| 20260503213054 | 58 | 266 | 5.2 | 10.4 | 0.00 | 0.00 | 0.00 | 89 | 1011.4 |
| 20260503211554 | 58 | 280 | 3.5 | 7.8 | 0.00 | 0.00 | 0.00 | 89 | 1011.4 |
| 20260503210052 | 58 | 225 | 3.5 | 9.6 | 0.00 | 0.00 | 0.00 | 89 | 1011.3 |
| 20260503204551 | 57 | 261 | 3.5 | 8.7 | 0.00 | 0.00 | 0.00 | 89 | 1011.2 |
| 20260503203055 | 57 | 288 | 5.2 | 10.4 | 0.00 | 0.00 | 0.00 | 89 | 1010.9 |
| 20260503201550 | 57 | 277 | 4.3 | 13.9 | 0.00 | 0.00 | 0.00 | 90 | 1010.7 |
| 20260503200049 | 57 | 285 | 6.1 | 14.8 | 0.00 | 0.00 | 0.00 | 89 | 1010.7 |
| 20260503194548 | 58 | 275 | 7.0 | 13.9 | 0.00 | 0.00 | 0.00 | 87 | 1010.5 |
| 20260503193047 | 58 | 294 | 5.2 | 13.0 | 0.00 | 0.00 | 0.00 | 87 | 1010.4 |
| 20260503191545 | 59 | 230 | 5.2 | 13.9 | 0.00 | 0.00 | 0.00 | 84 | 1010.4 |
| 20260503190046 | 59 | 256 | 7.8 | 13.0 | 0.00 | 0.00 | 0.00 | 82 | 1010.3 |
| 20260503184547 | 59 | 267 | 6.1 | 15.6 | 0.00 | 0.00 | 0.00 | 82 | 1010.3 |
| 20260503183041 | 59 | 260 | 5.2 | 11.3 | 0.00 | 0.00 | 0.00 | 83 | 1010.3 |
| 20260503181541 | 59 | 276 | 7.0 | 12.2 | 0.00 | 0.00 | 0.00 | 83 | 1010.3 |
| 20260503180042 | 59 | 280 | 7.8 | 13.9 | 0.00 | 0.00 | 0.00 | 83 | 1010.3 |
| 20260503174531 | 58 | 294 | 7.0 | 13.0 | 0.00 | 0.00 | 0.00 | 83 | 1010.3 |
| 20260503173026 | 58 | 266 | 7.0 | 13.0 | 0.00 | 0.00 | 0.00 | 83 | 1010.5 |
| 20260503171527 | 58 | 325 | 7.0 | 13.9 | 0.00 | 0.00 | 0.00 | 84 | 1010.5 |
| 20260503081515 | 60 | 309 | 7.8 | 13.0 | 0.00 | 0.00 | 0.00 | 77 | 1010.1 |
| 20260503071551 | 61 | 291 | 11.3 | 20.0 | 0.00 | 0.00 | 0.00 | 73 | 1009.8 |
| 20260503060107 | 61 | 289 | 13.9 | 26.1 | 0.00 | 0.00 | 0.00 | 75 | 1009.8 |
| 20260503054542 | 64 | 293 | 13.9 | 23.5 | 0.00 | 0.00 | 0.00 | 59 | 1009.3 |
| 20260503053041 | 65 | 306 | 14.8 | 23.5 | 0.00 | 0.00 | 0.00 | 61 | 1009.2 |
| 20260503051526 | 65 | 265 | 12.2 | 26.1 | 0.00 | 0.00 | 0.00 | 57 | 1009.2 |
| 20260503050027 | 65 | 276 | 10.4 | 24.3 | 0.00 | 0.00 | 0.00 | 62 | 1009.3 |
| 20260503044525 | 66 | 291 | 14.8 | 0.0 | 0.00 | 0.00 | 0.00 | 59 | 1009.2 |
| 20260503043036 | 65 | 258 | 14.8 | 22.6 | 0.00 | 0.00 | 0.00 | 60 | 1009.2 |
| 20260503041523 | 66 | 309 | 9.6 | 24.3 | 0.00 | 0.00 | 0.00 | 60 | 1009.4 |
| 20260503040018 | 66 | 306 | 12.2 | 24.3 | 0.00 | 0.00 | 0.00 | 59 | 1009.4 |
| 20260503034515 | 65 | 286 | 13.0 | 25.2 | 0.00 | 0.00 | 0.00 | 59 | 1009.7 |
| 20260503033113 | 65 | 261 | 10.4 | 19.1 | 0.00 | 0.00 | 0.00 | 63 | 1009.9 |
| 20260503031559 | 65 | 292 | 12.2 | 20.0 | 0.00 | 0.00 | 0.00 | 64 | 1009.8 |
| 20260503024555 | 65 | 294 | 15.6 | 26.9 | 0.00 | 0.00 | 0.00 | 61 | 1010.1 |
| 20260503023059 | 63 | 303 | 15.6 | 25.2 | 0.00 | 0.00 | 0.00 | 69 | 1010.1 |
| 20260503021558 | 64 | 329 | 12.2 | 22.6 | 0.00 | 0.00 | 0.00 | 68 | 1010.3 |
| 20260503020056 | 63 | 290 | 18.2 | 26.1 | 0.00 | 0.00 | 0.00 | 67 | 1010.3 |
| 20260503014546 | 62 | 302 | 18.2 | 26.1 | 0.00 | 0.00 | 0.00 | 68 | 1010.4 |
| 20260503013044 | 62 | 297 | 15.6 | 26.1 | 0.00 | 0.00 | 0.00 | 67 | 1010.3 |
| 20260503011528 | 62 | 303 | 13.9 | 22.6 | 0.00 | 0.00 | 0.00 | 67 | 1010.4 |
| 20260503010024 | 62 | 289 | 13.9 | 24.3 | 0.00 | 0.00 | 0.00 | 69 | 1010.6 |
| 20260503004522 | 62 | 282 | 17.4 | 25.2 | 0.00 | 0.00 | 0.00 | 69 | 1010.6 |
| 20260503003020 | 61 | 299 | 17.4 | 23.5 | 0.00 | 0.00 | 0.00 | 71 | 1010.7 |
| 20260503001516 | 60 | 300 | 15.6 | 20.0 | 0.00 | 0.00 | 0.00 | 75 | 1010.8 |
| 20260503000013 | 59 | 313 | 10.4 | 17.4 | 0.00 | 0.00 | 0.00 | 77 | 1010.9 |
| 20260502234509 | 58 | 326 | 12.2 | 19.1 | 0.00 | 0.00 | 0.00 | 77 | 1010.9 |
| 20260502233006 | 58 | 333 | 12.2 | 15.6 | 0.00 | 0.00 | 0.00 | 79 | 1010.9 |